Location: Omaha
(41.2590°N, 95.9380°W)
Time: 22:47:56
(UTC-06:00)

N. Korean satellite - Pass Details

Date: 11 October 2017
Orbit: 461 x 513 km, 97.2° (Epoch: 11 December)

Event Time Altitude Azimuth Distance (km) Brightness Sun altitude
Rises 19:35:09 0° 173° (S) 2,561 10.2 -9.5°
Reaches altitude 10° 19:37:15 10° 176° (S) 1,675 9.3 -9.9°
Maximum altitude 19:40:49 65° 259° (W) 535 7.0 -10.6°
Drops below altitude 10° 19:44:22 10° 342° (NNW) 1,659 9.5 -11.3°
Sets 19:46:26 0° 346° (NNW) 2,534 10.4 -11.7°
